Weather History for Lynchburg, VA

Change the Weather History Date:

Wednesday, December 28, 2011

  Actual Average Record
Temperature  
Mean Temperature 38 °F 35 °F  
Max Temperature 47 °F 46 °F 76 °F (1984)
Min Temperature 28 °F 25 °F 6 °F (1977)
Degree Days  
Heating Degree Days 27 30  
Month to date heating degree days 609 762  
Since 1 July heating degree days 1391 1656  
Cooling Degree Days 0 0  
Month to date cooling degree days 0 0  
Year to date cooling degree days 1346 1032  
Moisture  
Dew Point 23 °F    
Average Humidity 48    
Maximum Humidity 65    
Minimum Humidity 31    
Precipitation  
Precipitation 0.00 in 0.09 in 1.87 in (1958)
Month to date precipitation 4.61 2.97  
Year to date precipitation 38.98 41.30  
Snow  
Snow 0.00 in - - ()
Month to date snowfall 0.0  
Since 1 July snowfall T  
Snow Depth 0.00 in    
Sea Level Pressure  
Sea Level Pressure 29.88 in    
Wind  
Wind Speed 7 mph (West)    
Max Wind Speed 16 mph    
Max Gust Speed 28 mph    
Visibility 10 miles    
Events      
T = Trace of Precipitation, MM = Missing Value Source: NWS Daily Summary

Daily Weather History Graph

Daily Weather History Graph

Search for Another Location

Airport:

Trip Planner

Search our weather history database for the weather conditions in past years. The results will help you decide how hot, cold, wet, or windy it might be!

Date:

Astronomy

Dec. 28, 2011 Rise Set
Actual Time 7:30 AM EST 5:06 PM EST
Civil Twilight 7:00 AM EST 5:35 PM EST
Nautical Twilight 6:28 AM EST 6:08 PM EST
Astronomical Twilight 5:56 AM EST 6:40 PM EST
Moon 10:00 AM EST 9:35 PM EST
Length of Visible Light 10h 35m
Length of Day
9h 36m
Waxing Crescent, 18% of the Moon is Illuminated
Dec 28
Waxing Crescent
Jan 1
First Quarter
Jan 9
Full
Jan 16
Last Quarter
Jan 23
New

Hourly Weather History & Observations

Time (EST) Temp. Windchill Dew Point Humidity Pressure Visibility Wind Dir Wind Speed Gust Speed Precip Events Conditions
12:54 AM 42.1 °F 38.4 °F 30.0 °F 62% 29.64 in 10.0 mi Variable 5.8 mph - N/A   Mostly Cloudy
1:54 AM 42.1 °F 37.1 °F 30.0 °F 62% 29.65 in 10.0 mi West 8.1 mph 18.4 mph N/A   Overcast
2:54 AM 42.1 °F 35.7 °F 28.9 °F 60% 29.69 in 10.0 mi West 11.5 mph 20.7 mph N/A   Overcast
3:54 AM 41.0 °F 35.8 °F 28.9 °F 62% 29.72 in 10.0 mi West 8.1 mph - N/A   Overcast
4:54 AM 41.0 °F 39.0 °F 28.9 °F 62% 29.74 in 10.0 mi Variable 3.5 mph - N/A   Overcast
5:54 AM 41.0 °F 34.7 °F 28.0 °F 60% 29.77 in 10.0 mi SSW 10.4 mph - N/A   Overcast
6:54 AM 39.9 °F 35.8 °F 27.0 °F 60% 29.80 in 10.0 mi SSW 5.8 mph - N/A   Overcast
7:54 AM 41.0 °F 36.4 °F 26.1 °F 55% 29.83 in 10.0 mi West 6.9 mph - N/A   Overcast
8:54 AM 44.1 °F 40.1 °F 25.0 °F 47% 29.85 in 10.0 mi West 6.9 mph - N/A   Scattered Clouds
9:54 AM 45.0 °F 39.3 °F 26.1 °F 48% 29.89 in 10.0 mi West 11.5 mph 21.9 mph N/A   Scattered Clouds
10:54 AM 45.0 °F 40.1 °F 23.0 °F 42% 29.90 in 10.0 mi WNW 9.2 mph 20.7 mph N/A   Clear
11:54 AM 46.0 °F 41.4 °F 24.1 °F 42% 29.90 in 10.0 mi West 9.2 mph 18.4 mph N/A   Clear
12:54 PM 46.0 °F 41.0 °F 21.0 °F 37% 29.89 in 10.0 mi West 10.4 mph 18.4 mph N/A   Clear
1:54 PM 46.0 °F 41.4 °F 23.0 °F 40% 29.89 in 10.0 mi West 9.2 mph 17.3 mph N/A   Clear
2:54 PM 46.0 °F 40.6 °F 19.9 °F 35% 29.90 in 10.0 mi West 11.5 mph 20.7 mph N/A   Clear
3:54 PM 46.0 °F 41.9 °F 18.0 °F 33% 29.92 in 10.0 mi West 8.1 mph - N/A   Clear
4:54 PM 44.6 °F 42.2 °F 17.6 °F 34% 29.94 in 10.0 mi West 4.6 mph - N/A   Clear
5:54 PM 41.0 °F 38.0 °F 18.0 °F 40% 29.98 in 10.0 mi West 4.6 mph - N/A   Clear
6:54 PM 39.9 °F 36.7 °F 19.0 °F 43% 30.01 in 10.0 mi WNW 4.6 mph - N/A   Clear
7:54 PM 39.0 °F 34.8 °F 19.9 °F 46% 30.02 in 10.0 mi West 5.8 mph - N/A   Clear
8:54 PM 37.9 °F 34.4 °F 19.0 °F 47% 30.02 in 10.0 mi WSW 4.6 mph - N/A   Clear
9:54 PM 35.1 °F 30.1 °F 19.9 °F 54% 30.05 in 10.0 mi SW 5.8 mph - N/A   Clear
10:54 PM 33.1 °F - 19.9 °F 59% 30.05 in 10.0 mi Calm Calm - N/A   Clear
11:54 PM 28.0 °F - 19.9 °F 72% 30.06 in 10.0 mi Calm Calm - N/A   Clear